Location: Zagreb
(45.8000°N, 16.0000°E)
Time: 03:49:15
(UTC+01:00)

Courier 1B - All Passes

Search period start: 23 January 2022 00:00
Search period end: 02 February 2022 00:00
Orbit: 962 x 1209 km, 28.3° (Epoch: 22 January)

Date Brightness Start Highest point End Pass type
(mag) Time Alt. Az. Time Alt. Az. Time Alt. Az.
23 Jan - 00:11:11 10° SW 00:15:20 16° SSW 00:19:23 10° SSE night (unlit)
23 Jan - 19:32:06 10° S 19:35:45 14° SSE 19:39:24 10° SE visible
23 Jan - 21:23:22 10° SW 21:28:45 20° S 21:34:02 10° SE visible
23 Jan - 23:16:57 10° SW 23:21:46 18° SSW 23:26:28 10° SSE night (unlit)
24 Jan - 18:40:00 10° S 18:42:11 11° SSE 18:44:23 10° SE visible
24 Jan - 20:29:53 10° SW 20:35:07 19° S 20:40:17 10° SE visible
24 Jan - 22:22:56 10° SW 22:28:10 20° S 22:33:18 10° SE night (unlit)
25 Jan - 00:18:41 10° SW 00:21:02 12° SSW 00:23:21 10° S night (unlit)
25 Jan - 19:36:35 10° SSW 19:41:28 18° SSE 19:46:22 10° SE visible
25 Jan - 21:29:05 10° SW 21:34:33 21° S 21:39:55 10° SE visible
25 Jan - 23:23:41 10° SW 23:27:30 14° SSW 23:31:16 10° SSE night (unlit)
26 Jan - 18:43:34 10° SSW 18:47:52 16° SSE 18:52:11 10° SE visible
26 Jan - 20:35:23 10° SW 20:40:53 21° S 20:46:22 10° SE visible
26 Jan - 22:29:17 10° SW 22:33:55 17° SSW 22:38:29 10° SSE night (unlit)
27 Jan - 17:50:59 10° S 17:54:17 13° SSE 17:57:37 10° SE visible
27 Jan - 19:41:51 10° SW 19:47:14 20° S 19:52:39 10° SE visible
27 Jan - 21:35:11 10° SW 21:40:18 19° S 21:45:23 10° SSE visible
28 Jan - 16:59:43 10° SSE 17:00:45 10° SSE 17:01:47 10° SSE daylight
28 Jan - 18:48:30 10° SSW 18:53:36 19° S 18:58:45 10° SE visible
28 Jan - 20:41:18 10° SW 20:46:41 20° S 20:52:02 10° SE visible
28 Jan - 22:36:27 10° SW 22:39:37 13° SSW 22:42:45 10° S night (unlit)
29 Jan - 17:55:23 10° SSW 17:59:59 17° SSE 18:04:40 10° SE visible
29 Jan - 19:47:34 10° SW 19:53:02 21° S 19:58:31 10° SE visible
29 Jan - 21:41:50 10° SW 21:46:02 15° SSW 21:50:14 10° SSE visible
30 Jan - 17:02:35 10° SSW 17:06:25 15° SSE 17:10:19 10° SE daylight
30 Jan - 18:54:01 10° SW 18:59:23 21° S 19:04:49 10° SE visible
30 Jan - 20:47:38 10° SW 20:52:26 18° SSW 20:57:15 10° SSE visible
31 Jan - 16:10:23 10° S 16:12:53 12° SSE 16:15:25 10° SE daylight
31 Jan - 18:00:38 10° SW 18:05:44 20° S 18:10:59 10° SE visible
31 Jan - 19:53:41 10° SW 19:58:48 19° S 20:03:58 10° SSE visible
31 Jan - 21:49:56 10° SW 21:51:42 11° SSW 21:53:30 10° S visible
01 Feb - 17:07:26 10° SSW 17:12:09 18° S 17:16:59 10° SE daylight
01 Feb - 18:59:57 10° SW 19:05:10 20° S 19:10:29 10° SE visible
01 Feb - 20:54:42 10° SW 20:58:09 13° SSW 21:01:37 10° S visible
